OPTUS-X (ADS-01)

Last updated on Mon Oct 20 2025 00:02:51 GMT+0000 (Coordinated Universal Time)

1 62006U 24212A 25292.29314400 -.00000297 00000+0 00000+0 0 9995 2 62006 0.0523 71.2623 0001030 211.3465 341.5156 1.00570784 3340
UTC large
Height (km)
Speed (km/s)
/
Latitude / Longitude
Inclination (degrees)
Orbital Period (minutes)
Azimuth
Elevation
Range (km)
Doppler Factor

Next 0 passes for location: London (51.5072 / 0.1276)

Sorry there are no passes over London.